User: anonymous   Login
Location: Sun City Center
(27.6996°N, 82.3528°W)
Time: 21:01:02
(UTC-04:00)
Language:

Cosmos 2084 Rocket - Orbit

View from above orbital plane
View from above orbital plane
View from above satellite
View from above satellite

Ground track
Ground track

The orbit data is extracted from the following two-line orbital elements,

1 20666U 90055D   16237.47828321  .00000263  00000-0  39854-4 0  9997
2 20666  62.7836  57.8434 0135649  80.1042 281.5333 14.91670950416916
Epoch (UTC): 24 August 2016 11:28:43
Eccentricity: 0.0135649
inclination: 62.7836°
perigee height: 498 km
apogee height: 687 km
right ascension of ascending node: 57.8434°
argument of perigee: 80.1042°
revolutions per day: 14.91670950
mean anomaly at epoch: 281.5333°
orbit number at epoch: 41691

The dashed part of the orbit path shows where the satellite is in the earth's shadow,  

DLR